SB KEPS @ AMSAT $ORB14114.O Orbital Elements 14114.OSCAR
HR AMSAT ORBITAL ELEMENTS FOR OSCAR SATELLITES FROM WA5QGD FORT WORTH,TX April 24, 2014 BID: ORB14114.O TO ALL RADIO AMATEURS BT
Satellite: AO-07 Catalog number: 07530 Epoch time: 14113.86875186 Element set: 946 Inclination: 101.4675 deg RA of node: 097.4979 deg Eccentricity: 0.0012253 Arg of perigee: 042.9789 deg Mean anomaly: 019.8948 deg Mean motion: 12.53604629 rev/day Decay rate: -4.5e-07 rev/day^2 Epoch rev: 80471 Checksum: 339
Satellite: FO-29 Catalog number: 24278 Epoch time: 14114.01723498 Element set: 357 Inclination: 098.5147 deg RA of node: 135.3455 deg Eccentricity: 0.0351512 Arg of perigee: 078.2841 deg Mean anomaly: 335.6085 deg Mean motion: 13.53021932 rev/day Decay rate: 2.2e-07 rev/day^2 Epoch rev: 87334 Checksum: 300
Satellite: SO-33 Catalog number: 25509 Epoch time: 14114.37574954 Element set: 736 Inclination: 031.4314 deg RA of node: 105.2757 deg Eccentricity: 0.0349556 Arg of perigee: 002.9451 deg Mean anomaly: 142.7240 deg Mean motion: 14.29500272 rev/day Decay rate: 1.253e-05 rev/day^2 Epoch rev: 80944 Checksum: 291
Satellite: RS-22 Catalog number: 27939 Epoch time: 14114.55512287 Element set: 427 Inclination: 097.8080 deg RA of node: 291.3775 deg Eccentricity: 0.0012235 Arg of perigee: 280.4250 deg Mean anomaly: 079.5556 deg Mean motion: 14.65128304 rev/day Decay rate: 1.748e-05 rev/day^2 Epoch rev: 56487 Checksum: 323
Satellite: VO-52 Catalog number: 28650 Epoch time: 14114.46538165 Element set: 718 Inclination: 097.5598 deg RA of node: 122.1237 deg Eccentricity: 0.0024323 Arg of perigee: 338.8450 deg Mean anomaly: 021.1758 deg Mean motion: 14.85306429 rev/day Decay rate: 3.317e-05 rev/day^2 Epoch rev: 48525 Checksum: 312
Satellite: HO-68 Catalog number: 36122 Epoch time: 14114.75357555 Element set: 525 Inclination: 100.2534 deg RA of node: 168.2462 deg Eccentricity: 0.0007610 Arg of perigee: 001.9395 deg Mean anomaly: 358.1737 deg Mean motion: 13.16314555 rev/day Decay rate: -4.3e-07 rev/day^2 Epoch rev: 20940 Checksum: 280
Satellite: AO-73 Catalog number: 39444 Epoch time: 14114.13979237 Element set: 124 Inclination: 097.7757 deg RA of node: 186.6279 deg Eccentricity: 0.0063732 Arg of perigee: 059.8069 deg Mean anomaly: 300.9492 deg Mean motion: 14.78121352 rev/day Decay rate: 4.588e-05 rev/day^2 Epoch rev: 2148 Checksum: 342
/EX SB KEPS @ AMSAT $ORB14114.D Orbital Elements 14114.MICROS
HR AMSAT ORBITAL ELEMENTS FOR THE MICROSATS FROM WA5QGD FORT WORTH,TX April 24, 2014 BID: ORB14114.D TO ALL RADIO AMATEURS BT
Satellite: UO-11 Catalog number: 14781 Epoch time: 14114.40737445 Element set: 472 Inclination: 097.8573 deg RA of node: 175.5697 deg Eccentricity: 0.0008249 Arg of perigee: 005.7899 deg Mean anomaly: 354.3407 deg Mean motion: 14.81523422 rev/day Decay rate: 1.165e-05 rev/day^2 Epoch rev: 62000 Checksum: 309
Satellite: AO-16 Catalog number: 20439 Epoch time: 14114.10430799 Element set: 6 Inclination: 098.5045 deg RA of node: 052.4671 deg Eccentricity: 0.0009934 Arg of perigee: 324.0411 deg Mean anomaly: 103.9423 deg Mean motion: 14.32339242 rev/day Decay rate: 2.48e-06 rev/day^2 Epoch rev: 26674 Checksum: 275
Satellite: LO-19 Catalog number: 20442 Epoch time: 14114.15450366 Element set: 944 Inclination: 098.4752 deg RA of node: 053.3350 deg Eccentricity: 0.0010731 Arg of perigee: 311.7953 deg Mean anomaly: 048.2314 deg Mean motion: 14.32542954 rev/day Decay rate: 2.41e-06 rev/day^2 Epoch rev: 26694 Checksum: 280
Satellite: AO-27 Catalog number: 22825 Epoch time: 14114.45871126 Element set: 649 Inclination: 098.6583 deg RA of node: 060.8386 deg Eccentricity: 0.0009634 Arg of perigee: 096.4559 deg Mean anomaly: 042.5299 deg Mean motion: 14.29705178 rev/day Decay rate: 2.02e-06 rev/day^2 Epoch rev: 7310 Checksum: 322
Satellite: IO-26 Catalog number: 22826 Epoch time: 14114.43831656 Element set: 406 Inclination: 098.6525 deg RA of node: 061.0467 deg Eccentricity: 0.0010127 Arg of perigee: 089.9220 deg Mean anomaly: 270.3123 deg Mean motion: 14.30003825 rev/day Decay rate: 2.18e-06 rev/day^2 Epoch rev: 7323 Checksum: 265
Satellite: GO-32 Catalog number: 25397 Epoch time: 14113.96247433 Element set: 329 Inclination: 098.4635 deg RA of node: 073.9892 deg Eccentricity: 0.0002492 Arg of perigee: 106.3550 deg Mean anomaly: 297.6532 deg Mean motion: 14.23435222 rev/day Decay rate: 1.05e-06 rev/day^2 Epoch rev: 82015 Checksum: 297
Satellite: NO-44 Catalog number: 26931 Epoch time: 14114.61428431 Element set: 585 Inclination: 067.0509 deg RA of node: 176.6032 deg Eccentricity: 0.0005825 Arg of perigee: 280.5493 deg Mean anomaly: 079.4951 deg Mean motion: 14.30098515 rev/day Decay rate: 2.30e-06 rev/day^2 Epoch rev: 65594 Checksum: 305
Satellite: SO-50 Catalog number: 27607 Epoch time: 14114.27326335 Element set: 371 Inclination: 064.5593 deg RA of node: 036.6852 deg Eccentricity: 0.0040980 Arg of perigee: 028.7515 deg Mean anomaly: 331.5833 deg Mean motion: 14.73683539 rev/day Decay rate: 1.733e-05 rev/day^2 Epoch rev: 60953 Checksum: 312
Satellite: CO-55 Catalog number: 27844 Epoch time: 14114.06889313 Element set: 907 Inclination: 098.6985 deg RA of node: 123.6207 deg Eccentricity: 0.0010823 Arg of perigee: 075.7356 deg Mean anomaly: 321.0524 deg Mean motion: 14.21475914 rev/day Decay rate: 4.51e-06 rev/day^2 Epoch rev: 56089 Checksum: 316
Satellite: CO-57 Catalog number: 27848 Epoch time: 14114.57006431 Element set: 849 Inclination: 098.7077 deg RA of node: 123.7963 deg Eccentricity: 0.0010780 Arg of perigee: 080.2555 deg Mean anomaly: 035.0729 deg Mean motion: 14.21167721 rev/day Decay rate: 3.55e-06 rev/day^2 Epoch rev: 56088 Checksum: 317
Satellite: AO-51 Catalog number: 28375 Epoch time: 14113.92100779 Element set: 822 Inclination: 098.2461 deg RA of node: 062.6934 deg Eccentricity: 0.0083931 Arg of perigee: 155.7091 deg Mean anomaly: 204.8091 deg Mean motion: 14.41359288 rev/day Decay rate: 3.16e-06 rev/day^2 Epoch rev: 51609 Checksum: 310
Satellite: CP3 Catalog number: 31129 Epoch time: 14113.83279495 Element set: 728 Inclination: 097.9295 deg RA of node: 094.5888 deg Eccentricity: 0.0098981 Arg of perigee: 179.3648 deg Mean anomaly: 299.3683 deg Mean motion: 14.54577640 rev/day Decay rate: 1.268e-05 rev/day^2 Epoch rev: 37213 Checksum: 373
Satellite: CO-65 Catalog number: 32785 Epoch time: 14114.75354762 Element set: 930 Inclination: 097.7051 deg RA of node: 167.7934 deg Eccentricity: 0.0013681 Arg of perigee: 011.4119 deg Mean anomaly: 127.7370 deg Mean motion: 14.85137450 rev/day Decay rate: 2.823e-05 rev/day^2 Epoch rev: 32409 Checksum: 307
Satellite: PRISM Catalog number: 33493 Epoch time: 14114.73190660 Element set: 853 Inclination: 098.2462 deg RA of node: 288.1344 deg Eccentricity: 0.0016475 Arg of perigee: 257.8269 deg Mean anomaly: 102.1090 deg Mean motion: 14.89052394 rev/day Decay rate: 8.978e-05 rev/day^2 Epoch rev: 28422 Checksum: 320
Satellite: SOHLA-1 Catalog number: 33496 Epoch time: 14114.86061567 Element set: 332 Inclination: 098.1631 deg RA of node: 235.6847 deg Eccentricity: 0.0007223 Arg of perigee: 061.5031 deg Mean anomaly: 051.2053 deg Mean motion: 14.70758099 rev/day Decay rate: 7.55e-06 rev/day^2 Epoch rev: 28167 Checksum: 294
Satellite: TISAT-1 Catalog number: 36799 Epoch time: 14114.80492763 Element set: 115 Inclination: 098.0156 deg RA of node: 206.4101 deg Eccentricity: 0.0015266 Arg of perigee: 132.2853 deg Mean anomaly: 227.9632 deg Mean motion: 14.85396143 rev/day Decay rate: 6.209e-05 rev/day^2 Epoch rev: 20479 Checksum: 302
Satellite: STUDSAT Catalog number: 36801 Epoch time: 14114.75500503 Element set: 811 Inclination: 098.0330 deg RA of node: 213.3901 deg Eccentricity: 0.0010445 Arg of perigee: 113.3008 deg Mean anomaly: 246.9815 deg Mean motion: 14.95636097 rev/day Decay rate: 1.5206e-04 rev/day^2 Epoch rev: 20514 Checksum: 254
Satellite: ALMASAT-1 Catalog number: 38078 Epoch time: 14114.28602762 Element set: 5 Inclination: 069.4698 deg RA of node: 188.9339 deg Eccentricity: 0.0605664 Arg of perigee: 103.4722 deg Mean anomaly: 005.0241 deg Mean motion: 14.46336167 rev/day Decay rate: 3.7925e-04 rev/day^2 Epoch rev: 11383 Checksum: 308
Satellite: XATCOBEO Catalog number: 38082 Epoch time: 14114.49300579 Element set: 154 Inclination: 069.4431 deg RA of node: 105.4017 deg Eccentricity: 0.0291031 Arg of perigee: 056.9604 deg Mean anomaly: 082.9260 deg Mean motion: 15.29658677 rev/day Decay rate: 2.45177e-03 rev/day^2 Epoch rev: 11610 Checksum: 294
Satellite: CUBEBUG-1 Catalog number: 39153 Epoch time: 14114.72660905 Element set: 58 Inclination: 098.0438 deg RA of node: 195.1358 deg Eccentricity: 0.0018253 Arg of perigee: 158.6598 deg Mean anomaly: 201.5400 deg Mean motion: 14.77566048 rev/day Decay rate: 3.460e-05 rev/day^2 Epoch rev: 5366 Checksum: 308
Satellite: ESTCUBE-1 Catalog number: 39161 Epoch time: 14114.71913724 Element set: 36 Inclination: 098.0979 deg RA of node: 196.0074 deg Eccentricity: 0.0009543 Arg of perigee: 196.4109 deg Mean anomaly: 163.6798 deg Mean motion: 14.69878941 rev/day Decay rate: 2.576e-05 rev/day^2 Epoch rev: 5174 Checksum: 338
/EX SB KEPS @ AMSAT $ORB14114.W Orbital Elements 14114.WEATHER
HR AMSAT ORBITAL ELEMENTS FOR WEATHER SATELLITES FROM WA5QGD FORT WORTH,TX April 24, 2014 BID: ORB14114.W TO ALL RADIO AMATEURS BT
Satellite: MET-2/21 Catalog number: 22782 Epoch time: 14114.78690127 Element set: 36 Inclination: 082.5518 deg RA of node: 215.6661 deg Eccentricity: 0.0023116 Arg of perigee: 058.1666 deg Mean anomaly: 051.9011 deg Mean motion: 13.83735747 rev/day Decay rate: 8.2e-07 rev/day^2 Epoch rev: 4273 Checksum: 289
Satellite: OKEAN-4 Catalog number: 23317 Epoch time: 14114.81279610 Element set: 514 Inclination: 082.5356 deg RA of node: 117.9710 deg Eccentricity: 0.0018882 Arg of perigee: 275.6902 deg Mean anomaly: 217.4503 deg Mean motion: 14.85414826 rev/day Decay rate: 2.062e-05 rev/day^2 Epoch rev: 5518 Checksum: 291
